Regional Weather Roundup
Issued by NWS Bismarck, ND

Home | Current Version | Previous Version | Text Only | Print | Product List | Glossary On
Versions: 1 2 3 4 5 6 7 8 9 10 11 12 13 14 15 16 17 18 19 20 21 22 23 24 25 26 27 28 29 30 31 32 33 34 35 36 37 38 39 40 41 42 43 44 45 46 47 48 49 50
000
ASUS43 KBIS 270910
RWRBIS

NWR BROADCAST TEXT
NATIONAL WEATHER SERVICE BISMARCK ND
300 AM CST TUE JAN 27 2015

NOTE: "FAIR" INDICATES FEW OR NO CLOUDS BELOW 12,000 FEET WITH NO
SIGNIFICANT WEATHER AND/OR OBSTRUCTIONS TO VISIBILITY.


CITY           SKY/WX    TMP DP  RH WIND       PRES   REMARKS
WILLISTON      PTCLDY    28  26  92 N5        29.86S
MINOT          PTCLDY    30  27  88 SE5       29.88F
MINOT AFB      PTCLDY    28  28 100 S6        29.88F
BISMARCK       CLEAR     30  28  92 E6        29.95R
DICKINSON      CLEAR     34  29  82 S6        29.86S
GARRISON         N/A     30  29  96 SE5       29.89F
HETTINGER ARPT CLEAR     32  27  81 CALM      29.90F
JAMESTOWN      CLEAR     26  25  96 CALM      29.98S
BEACH          FAIR      39  32  75 SW6       29.87S
CARRINGTON     FAIR      28  28 100 MISG      29.98S
CROSBY         FAIR      32  32 100 SW10      29.84S
HARVEY         FAIR      27  27 100 SE8       29.94S WCI  18
HAZEN          FAIR      30  27  86 CALM      29.91S
LINTON         FAIR      30  30 100 E8        29.96R
MANDAN         FAIR      32  30  93 SE8       29.94S
OAKES            N/A     27  27 100 SE3       30.01S
RUGBY          FAIR      25  25 100 SE9       29.93S WCI  15
TIOGA          FAIR      30  30 100 CALM      29.89R
WATFORD CITY   FAIR      28  28 100 CALM      29.84S
$$

CITY           SKY/WX    TMP DP  RH WIND       PRES   REMARKS
GRAND FORKS    FOG       26  24  92 S8        30.05R VSB 1/2 WCI  18
GRAND FORKS AF FOG       23  21  94 S7        30.04S VSB 3/4 WCI  14
DEVILS LAKE    CLEAR     21  18  86 SE5       29.96S WCI  15
FARGO          CLOUDY    28  26  92 CALM      30.06R FOG
CANDO          FAIR      23  21  93 SE7       29.96S WCI  15
CAVALIER       FOG       19  19 100 S6        30.02S VSB 3/4 WCI  11
GWINNER        SUNNY     28  28 100 CALM      30.03S
LANGDON        FOG       19  18  93 S9        29.96S VSB 1/4 WCI   9
ROLLA          PTSUNNY   28  28 100 SW8       29.94S
WALHALLA         N/A     19  19 100 S8        30.00F WCI   9
$$

CITY           SKY/WX    TMP DP  RH WIND       PRES   REMARKS
ABERDEEN       PTCLDY    28  26  92 S3        30.02R
MOBRIDGE       CLEAR     32  29  88 SE9       29.93F
BUFFALO          N/A     39  30  70 W6        29.85F
RAPID CITY     CLEAR     40  26  57 NW6       29.96S
GLASGOW        PTCLDY    34  30  85 E9        29.83S
SIDNEY         PTCLDY    30  28  93 CALM      29.87S
WOLF POINT     MOCLDY    28  26  92 CALM      29.84F
GLENDIVE       PTCLDY    34  28  80 S5        29.87S
MILES CITY     MOCLDY    35  29  78 S6        29.89F
BAKER          PTCLDY    34  28  79 NW3       29.90S
$$

CITY           SKY/WX    TMP DP  RH WIND       PRES   REMARKS
BILLINGS       PTCLDY    51  26  37 SW25G31   29.96F
GREAT FALLS    PTCLDY    52  27  38 SW18      29.91F
REGINA         PTCLDY    28  27  93 SE7       29.81R
ESTEVAN        CLEAR     28  27  93 S8        29.83F
$$




USA.gov is the U.S. government's official web portal to all federal, state and local government web resources and services.